Theta_e
319 320 319 319 319 319 320 320 320 320 320 321 321 321 322 322 322 323 323 322 323 321 321 321 321 321 320 320 320 320 319 319 321 321 321 323 333 336 339 329 331 338 334 335 339 337 339 341 338 341 336 338 333 333 339 340 341 341 332 329 322 324 327 329 333 327 335 333 332 335 340 339 335 341 341 345 341 339 341 339 342 345 345 346 345 345 346 346
319 319 319 319 319 319 319 319 319 320 320 321 321 321 321 322 322 322 322 322 322 322 321 321 321 321 320 320 320 319 319 320 320 321 320 332 338 339 338 334 337 337 335 335 336 335 338 336 337 339 333 332 335 330 338 335 339 332 331 331 321 330 329 335 334 335 333 332 334 339 340 338 337 341 339 337 336 336 337 338 340 341 344 345 344 344 344 344
319 319 319 319 318 319 319 319 320 320 320 321 321 321 321 321 321 321 322 322 322 322 321 321 320 321 320 320 319 319 318 320 321 320 329 343 342 335 335 335 335 339 331 333 338 337 336 336 337 337 332 330 331 326 335 332 335 331 328 326 328 331 334 333 335 335 341 338 337 337 339 337 337 340 340 337 336 336 335 335 338 339 339 341 342 343 343 344
318 318 318 318 318 318 319 319 320 320 320 320 320 321 320 320 320 321 321 321 321 321 321 321 321 320 320 320 318 320 322 321 319 328 335 343 346 343 337 334 336 336 335 335 339 337 337 337 335 335 329 326 328 327 330 330 330 332 328 325 329 332 332 333 337 335 337 338 340 339 338 336 336 341 338 336 333 334 336 339 339 337 339 340 341 342 343 343
318 318 318 318 318 318 318 319 319 319 320 320 320 320 320 320 320 320 320 321 321 321 321 321 321 321 320 320 319 322 321 308 315 327 333 345 348 346 339 337 337 330 332 335 340 337 335 334 334 332 328 323 325 325 324 329 334 332 330 332 331 332 328 334 336 335 335 335 339 338 333 338 339 341 337 343 337 332 340 339 342 340 342 340 340 342 343 342
318 317 318 317 318 318 318 318 319 319 319 319 320 319 319 319 319 320 320 320 321 321 321 322 322 321 320 320 320 322 320 303 319 323 350 341 348 350 342 339 339 331 328 333 336 333 331 331 332 326 323 324 321 319 322 325 332 321 328 330 334 335 333 336 337 336 335 337 336 336 337 340 336 337 340 337 337 336 340 343 344 343 343 343 343 342 341 342
317 317 317 317 317 317 317 318 318 318 318 319 319 319 318 319 319 318 319 319 320 321 321 321 322 321 320 319 321 321 319 315 319 327 347 343 339 349 345 341 340 331 327 330 333 330 329 328 329 324 321 321 321 320 322 322 324 325 322 333 332 336 335 338 338 337 335 333 334 339 341 337 336 333 341 337 337 337 346 343 345 346 344 344 342 342 341 341
317 317 317 317 317 317 317 317 317 318 318 318 319 319 318 318 318 319 319 320 320 321 322 321 322 321 320 320 321 322 318 311 319 325 347 343 344 346 343 329 327 328 326 327 330 328 327 326 325 324 319 318 317 318 322 320 320 320 321 326 331 335 336 338 338 336 334 333 335 336 336 336 336 336 337 338 338 343 344 346 346 345 344 343 342 342 342 342
316 316 317 316 316 317 317 317 318 318 318 318 318 318 318 318 318 318 319 319 321 322 322 323 322 321 320 321 316 313 311 317 319 323 328 331 332 337 328 323 326 327 327 328 331 329 326 325 327 324 316 316 318 315 319 317 317 322 323 326 325 328 334 337 337 336 335 335 335 332 334 338 339 336 333 338 337 343 345 345 345 345 343 342 342 343 343 342
316 316 316 316 316 316 317 317 317 318 318 318 318 317 317 317 317 318 319 320 322 323 323 322 322 321 320 319 320 310 313 320 321 324 326 330 328 326 324 326 326 329 328 328 329 328 325 326 326 325 321 319 318 314 317 318 318 327 324 323 323 326 331 335 333 335 335 334 334 331 331 336 337 334 330 337 338 344 343 343 345 343 342 342 342 343 343 343
316 316 316 316 316 316 316 317 317 317 318 318 317 317 317 317 317 318 320 321 323 323 322 323 323 321 320 323 314 309 315 317 321 321 323 332 328 325 325 326 327 329 330 329 328 329 329 328 327 325 320 315 316 314 315 318 323 323 325 325 324 324 326 330 333 333 335 331 334 332 331 333 335 333 333 334 339 345 342 342 342 343 342 343 343 342 344 344
315 315 315 316 316 316 316 317 317 317 317 317 316 316 316 317 317 319 321 323 324 323 322 323 322 323 322 319 315 313 321 319 320 322 323 323 328 328 330 330 327 330 331 329 328 329 329 328 325 321 314 318 310 315 315 319 320 320 320 316 319 321 320 324 327 332 333 332 334 333 329 328 332 326 334 337 337 343 341 340 340 342 342 343 344 343 344 345
315 315 315 315 315 315 316 316 316 317 316 316 316 315 315 316 317 320 324 321 323 322 323 323 324 323 321 317 314 318 321 324 321 319 321 323 323 328 331 333 331 331 332 329 327 327 328 327 325 319 321 315 312 310 316 318 317 319 318 315 315 316 316 322 326 329 331 332 334 332 319 322 327 330 337 337 337 340 339 338 341 342 342 342 343 343 344 345
315 315 315 315 315 316 316 316 316 316 315 316 315 314 314 315 318 322 324 324 324 323 323 324 325 324 321 316 315 318 318 323 321 318 318 320 321 322 326 330 332 333 334 331 330 329 327 328 326 322 323 317 312 320 314 314 316 311 314 315 310 310 311 321 324 327 327 333 332 332 319 320 326 330 335 336 339 339 340 338 340 342 342 342 342 344 343 344
315 315 315 315 315 315 315 315 315 314 315 315 314 313 314 314 320 325 324 324 322 325 324 324 325 324 320 313 318 318 333 321 320 321 318 317 318 322 321 327 328 330 331 331 330 330 328 326 324 319 316 321 318 313 310 311 312 312 308 306 310 309 312 318 324 326 324 331 333 329 320 322 325 329 333 338 340 337 338 338 340 341 341 341 343 342 343 343
315 315 315 315 315 315 315 314 313 314 314 313 312 312 315 317 323 324 324 328 327 325 327 326 327 324 317 311 314 328 321 314 312 315 318 317 317 316 323 324 327 327 329 329 331 329 327 325 319 318 317 317 312 309 308 308 308 311 308 307 308 310 311 315 324 328 329 330 331 328 321 322 326 330 333 338 337 339 339 339 339 341 342 342 341 343 343 343
314 314 314 314 315 314 315 313 313 314 312 312 312 314 317 320 323 325 326 326 327 328 329 325 321 322 314 313 318 313 310 313 314 315 316 318 317 320 325 324 322 323 327 325 326 326 324 321 321 317 317 312 311 309 304 304 304 306 310 307 311 310 311 310 323 328 330 329 325 328 323 324 326 328 335 338 336 336 336 334 338 341 342 342 342 343 343 343
314 314 314 314 314 315 314 313 313 312 311 311 311 313 316 325 325 325 327 325 331 330 328 328 324 318 312 313 305 307 312 312 312 313 315 318 317 319 324 321 322 322 321 318 322 318 322 316 316 309 311 310 310 307 301 299 303 304 307 307 308 312 313 312 315 324 327 328 325 324 323 324 325 327 331 335 336 335 333 337 339 339 341 342 342 344 343 343
314 314 314 314 314 314 313 313 312 311 311 311 314 315 317 317 326 328 324 327 321 320 317 313 310 303 299 305 310 311 312 313 315 315 313 315 316 319 325 323 320 318 313 313 314 315 317 313 312 307 304 306 307 308 304 306 308 307 309 309 310 309 310 311 317 325 326 324 323 324 321 324 325 326 330 334 335 334 334 334 338 341 341 340 343 343 344 344
314 314 314 313 313 313 313 312 311 310 309 313 318 323 318 316 316 313 318 317 310 307 307 308 309 308 309 309 309 313 316 316 311 314 316 318 314 318 321 319 316 316 313 308 312 312 315 306 304 303 306 308 309 310 310 309 310 311 310 310 310 311 312 315 317 323 328 324 323 324 325 325 325 327 329 331 331 331 332 333 336 339 340 341 341 342 344 345
314 313 313 313 313 312 312 311 311 309 309 314 316 313 305 305 302 303 306 307 308 310 308 308 308 307 307 309 311 311 309 310 313 312 317 319 318 319 316 315 312 309 311 312 312 314 313 305 305 308 309 310 310 311 311 310 309 309 309 309 309 311 310 315 315 323 326 322 321 325 323 324 327 328 330 331 331 329 331 332 335 336 337 339 342 342 341 344
313 313 313 313 312 312 311 311 310 310 308 317 318 309 309 309 310 313 309 304 308 309 309 309 309 309 310 310 311 312 311 308 310 312 316 318 319 313 316 312 309 306 311 311 312 308 306 304 307 310 312 312 312 311 310 309 307 308 308 309 309 310 314 316 317 322 324 321 318 322 321 323 326 328 330 330 328 330 332 335 339 337 339 343 342 339 342 345
313 313 313 313 312 311 310 310 309 307 314 316 311 310 309 313 316 317 312 308 304 309 309 308 307 307 307 310 311 312 307 306 306 310 313 316 316 313 316 310 309 308 310 310 306 306 303 306 310 312 312 311 310 311 309 308 308 307 307 307 307 312 310 308 314 318 321 320 318 320 319 321 326 329 328 329 328 331 333 333 335 340 340 336 341 341 342 341
313 313 313 312 311 311 310 309 307 314 320 314 312 310 314 316 316 314 310 303 303 307 308 308 308 307 306 305 310 309 306 307 307 308 314 312 309 315 314 314 310 308 307 309 308 306 305 310 314 312 311 311 308 309 309 307 305 307 307 307 307 309 312 312 313 315 318 320 320 319 317 318 321 322 324 327 329 330 331 333 334 340 340 342 343 340 343 342
313 313 313 312 311 310 309 306 312 315 315 315 312 314 316 317 317 316 308 306 304 303 311 308 309 309 308 313 313 307 308 307 308 310 313 312 310 310 311 316 313 308 308 310 309 307 307 312 314 311 310 310 309 307 308 308 305 305 307 307 308 310 310 313 314 314 312 312 317 315 308 310 320 321 322 326 327 326 330 332 332 336 339 342 339 338 342 343
313 313 313 312 311 310 307 312 316 315 313 313 312 315 316 317 317 318 309 302 298 302 306 301 308 302 309 306 309 308 307 303 309 311 312 314 315 309 309 307 311 307 309 309 308 308 308 313 312 309 308 308 308 307 309 308 305 304 305 309 309 309 308 309 311 311 307 306 314 317 307 306 316 318 322 324 324 326 331 329 332 334 336 339 338 338 340 341
313 313 312 311 311 308 313 312 317 315 311 311 315 316 316 316 323 314 302 298 294 301 301 304 305 303 308 306 307 308 296 301 311 313 312 315 310 315 306 306 310 311 313 313 308 304 310 310 310 309 308 307 306 304 308 308 305 303 309 309 308 307 306 307 310 311 310 315 317 317 313 307 308 314 321 323 322 323 325 330 330 329 333 341 339 337 341 340
313 312 311 310 309 308 313 315 317 312 311 313 316 316 317 319 320 315 302 290 290 304 300 303 304 310 308 308 309 304 304 307 303 307 312 314 312 309 306 304 306 308 310 310 301 309 309 307 308 307 307 306 305 307 310 310 306 305 309 309 307 307 306 306 307 309 311 310 307 312 315 308 307 314 321 321 319 321 322 325 328 330 334 338 340 340 343 342
312 312 311 310 308 307 314 316 314 312 315 317 316 317 316 322 313 305 299 290 300 301 307 300 310 307 306 307 305 305 305 306 300 307 311 313 313 311 304 306 306 306 309 309 304 309 311 310 310 309 307 304 308 310 310 309 305 308 310 310 309 308 307 306 305 306 308 307 303 309 312 306 306 313 314 320 319 319 321 324 327 331 331 335 336 335 336 343
312 311 310 309 310 318 319 320 316 317 317 317 317 318 316 312 308 297 292 286 303 295 302 303 303 300 304 302 302 303 302 304 305 307 309 308 311 311 308 311 306 305 305 308 308 309 312 315 314 310 307 309 310 311 311 309 309 311 309 308 307 307 307 307 305 304 303 298 302 309 311 310 303 310 313 314 317 320 322 324 327 331 333 334 336 340 340 341
310 310 309 309 314 316 314 312 316 318 318 319 319 316 313 309 299 295 289 295 302 298 303 301 299 304 300 299 299 302 302 302 303 304 305 308 305 307 307 305 308 303 303 304 304 308 309 311 310 311 313 312 312 309 311 311 311 309 307 305 305 304 307 305 304 305 296 295 302 307 309 311 302 308 315 319 322 324 323 323 325 329 331 331 338 336 337 339
309 307 309 311 316 317 311 311 316 318 319 319 316 311 306 296 300 290 291 302 293 297 298 298 300 300 299 300 299 299 298 301 302 302 301 303 304 304 304 300 304 297 296 298 298 306 304 306 311 312 315 311 309 307 308 310 310 307 306 305 299 298 300 296 300 295 295 294 302 306 308 306 307 312 317 319 320 323 325 326 326 328 330 333 335 337 336 337
308 307 306 312 315 315 317 319 318 320 319 316 312 309 301 294 290 298 296 298 293 300 297 301 298 298 299 298 298 298 301 297 301 301 300 302 300 303 303 303 304 301 295 301 299 299 302 308 308 310 312 313 310 303 303 304 307 306 304 303 299 295 295 292 296 298 298 301 304 305 309 304 311 314 319 318 321 323 324 326 328 328 331 333 334 338 336 339
307 308 315 318 317 319 318 321 320 318 315 315 310 305 299 291 292 301 297 297 295 301 299 298 298 299 298 296 297 298 297 301 299 299 299 300 301 300 303 304 302 301 301 301 298 300 295 297 303 306 305 313 310 308 307 306 307 306 308 305 302 301 298 294 296 293 295 299 302 305 303 302 303 308 319 320 322 325 325 326 328 329 331 333 333 336 336 340
306 312 319 320 320 321 321 318 319 317 315 310 305 301 293 293 299 295 296 297 298 299 297 299 297 296 297 298 299 299 297 295 300 298 299 298 297 300 301 301 302 302 302 295 301 301 299 300 306 309 310 313 309 312 312 309 307 309 309 309 304 302 307 299 303 301 300 299 300 302 300 307 308 316 319 322 322 323 324 325 326 326 328 332 336 336 336 335
310 321 320 318 317 317 317 317 317 316 312 307 301 297 294 297 294 298 296 300 298 296 297 298 297 295 296 297 299 297 300 295 298 298 297 298 300 299 301 301 300 301 299 296 300 297 301 298 306 309 311 310 311 313 311 312 300 307 308 302 305 311 308 304 305 307 306 302 300 307 305 307 312 314 316 318 319 321 322 323 324 326 327 332 333 333 334 336
319 319 315 317 314 316 317 317 317 315 312 305 300 296 299 299 300 299 300 298 298 298 297 292 295 294 293 294 296 297 297 299 298 297 295 299 297 299 299 301 302 301 302 300 297 304 296 298 306 306 305 310 313 313 313 312 312 309 304 307 312 313 311 305 298 303 301 298 300 304 302 304 304 300 313 315 316 318 320 321 323 325 327 328 330 333 336 338
317 318 316 313 314 317 317 318 315 314 309 304 299 297 302 298 301 300 301 300 300 299 295 295 295 296 294 294 294 295 298 294 297 296 295 298 294 302 300 300 303 301 301 304 298 300 303 295 302 306 306 309 312 311 309 312 313 307 307 315 305 300 299 304 302 295 296 296 299 303 305 305 306 306 310 311 313 316 319 322 322 322 324 326 327 329 332 335
318 316 311 312 316 316 317 319 315 311 306 300 300 298 299 300 301 300 301 300 299 298 295 296 294 297 296 293 295 296 297 292 295 295 293 296 293 300 299 299 299 302 302 302 299 300 303 294 297 306 305 308 309 308 300 304 311 312 312 307 312 309 304 301 302 303 303 298 298 299 303 301 309 310 311 311 314 316 317 319 320 322 323 323 325 326 327 331
316 312 307 314 316 316 319 317 312 309 304 298 301 299 302 298 300 301 303 300 299 298 297 295 297 294 297 296 295 293 296 295 295 295 294 296 295 300 298 301 298 299 301 302 299 302 298 303 292 300 306 305 300 305 302 305 303 304 305 304 306 307 311 308 307 303 301 299 299 299 297 303 310 314 314 315 315 316 316 316 319 320 322 323 324 325 327 329
317 311 308 315 315 318 317 312 306 304 302 302 302 300 301 299 301 301 301 301 301 302 297 297 297 295 295 294 295 298 295 296 295 294 295 296 296 293 299 300 299 298 300 300 299 300 297 298 293 297 298 299 300 307 307 307 308 307 305 303 306 304 302 299 299 307 304 301 297 300 299 309 312 314 314 315 317 317 318 318 318 319 320 323 324 327 328 329
313 305 306 315 316 316 311 303 303 306 303 301 299 301 299 302 301 299 301 302 300 300 302 298 299 297 296 296 296 295 295 294 295 294 296 294 297 296 298 301 299 299 297 296 298 304 301 301 299 295 297 299 303 307 309 310 309 308 308 305 308 308 307 302 295 301 304 304 306 305 302 306 316 318 317 315 316 317 319 318 318 318 320 320 323 325 328 332
309 305 313 315 316 314 309 303 304 303 300 300 302 301 302 300 300 299 300 299 298 300 298 298 298 295 298 296 296 295 296 293 294 293 296 296 297 298 300 301 300 298 299 298 299 303 303 297 295 296 300 303 305 308 309 308 308 306 307 308 307 303 306 305 304 307 304 305 302 302 300 305 314 320 318 317 319 318 320 318 319 319 320 321 322 324 329 331
310 309 309 315 317 314 305 299 299 300 299 301 301 299 301 301 301 299 299 300 298 299 298 297 298 299 296 298 297 294 297 290 296 295 294 297 295 300 300 299 300 297 297 298 296 300 294 298 296 293 293 295 298 302 303 307 306 304 304 307 308 308 308 308 309 309 303 305 305 301 296 303 313 318 319 317 317 316 316 317 319 319 320 321 323 325 326 333
310 310 309 310 316 312 303 304 303 300 300 299 299 298 299 300 300 300 300 299 300 300 297 297 298 298 297 299 296 297 297 294 292 296 295 295 296 300 300 300 300 298 299 301 302 301 296 296 296 289 287 287 287 289 293 297 301 304 306 305 308 307 307 304 301 303 298 306 308 303 303 309 314 318 316 316 316 317 317 318 319 321 322 321 321 324 334 337
307 302 306 308 309 309 308 308 305 301 299 299 297 297 298 298 300 300 299 299 300 300 300 299 299 299 297 296 294 295 295 298 294 294 296 294 296 298 299 300 299 299 301 301 301 300 295 297 297 295 293 292 295 299 301 302 301 299 302 304 306 307 307 306 304 302 300 305 304 307 308 309 310 313 315 317 317 316 315 317 317 319 321 323 327 327 327 337
310 301 302 300 307 306 303 305 303 302 298 300 297 297 296 295 298 299 300 298 301 298 298 298 298 296 296 295 295 295 296 295 298 297 296 295 296 297 301 300 300 301 300 300 301 298 295 292 294 296 296 297 298 299 302 300 298 300 300 300 303 303 304 305 303 301 309 304 299 308 312 307 310 313 315 317 317 317 316 318 319 320 321 322 323 328 335 330
302 304 306 306 300 298 301 299 302 301 302 302 297 300 295 296 296 295 298 299 300 301 296 299 298 297 297 296 297 293 294 295 296 293 296 296 296 298 298 301 299 300 299 299 302 297 294 291 294 295 294 296 297 298 300 300 300 299 299 300 300 301 301 302 302 305 308 303 300 308 311 310 312 313 315 321 322 322 321 323 324 324 324 328 329 326 324 325
308 306 305 308 303 301 302 301 303 301 299 300 298 298 296 295 294 296 295 297 298 297 299 294 295 297 299 300 298 295 296 291 291 295 295 296 296 297 295 298 299 302 299 298 299 300 296 292 294 295 293 295 296 296 298 298 298 299 300 301 302 301 301 302 304 306 306 306 308 309 311 310 314 316 318 322 325 324 324 324 325 326 327 330 330 327 325 324
302 305 302 307 305 303 303 303 300 300 298 299 297 296 297 296 295 296 298 296 295 296 299 296 296 298 299 299 299 295 297 297 296 293 298 297 297 298 296 297 295 299 300 297 296 299 294 291 294 295 293 292 295 296 297 297 297 297 299 301 301 302 303 304 306 306 306 305 308 308 309 309 315 319 320 325 326 325 324 323 322 327 330 330 331 330 331 333
308 311 309 304 301 302 304 302 300 299 297 298 297 296 297 296 296 297 297 299 297 296 297 295 298 299 300 300 299 298 300 300 300 299 300 299 294 299 296 297 300 296 298 297 297 297 296 292 295 294 289 290 294 294 295 296 297 297 298 299 300 300 300 303 302 306 304 304 306 307 306 307 313 318 319 325 323 323 323 324 324 327 331 333 331 331 332 334
312 311 312 308 300 300 301 302 301 300 295 297 297 297 296 296 297 298 296 299 299 301 300 299 299 300 299 298 298 299 302 301 301 301 302 302 302 301 301 300 299 297 296 297 300 295 294 292 290 291 288 289 293 295 294 295 294 292 295 299 301 302 303 304 305 307 308 308 305 303 304 311 314 318 319 322 323 323 324 325 328 329 330 330 332 333 334 334
Wind_Speed
22 22 22 22 21 21 21 21 20 20 19 18 18 18 18 17 18 17 17 16 14 14 12 12 11 11 11 9 9 9 8 10 10 10 12 14 5 8 3 5 3 10 9 11 14 16 16 15 15 11 10 9 9 10 9 10 7 6 7 5 7 4 8 4 7 4 10 8 11 11 11 10 11 10 9 9 9 11 9 10 10 8 7 12 21 23 24 23
22 22 23 22 22 21 22 22 21 20 19 18 18 18 18 17 17 17 17 16 14 13 12 10 11 11 10 10 8 7 10 10 11 11 16 5 4 1 4 4 2 12 13 14 17 18 16 16 15 13 11 9 8 10 9 7 8 8 7 7 6 3 8 12 3 12 10 5 9 10 8 10 11 9 9 8 10 12 11 11 11 12 14 20 21 25 24 23
23 23 23 22 23 24 24 23 23 21 20 19 18 17 18 18 17 17 17 16 14 13 12 11 9 11 10 9 7 6 8 10 11 11 1 6 7 8 8 8 7 12 17 16 16 17 16 16 15 15 12 10 9 10 9 7 8 10 8 6 5 3 12 3 3 6 18 10 8 12 8 5 10 8 8 9 12 11 10 11 13 14 17 20 24 25 24 23
23 23 24 25 26 26 25 23 22 22 21 20 18 18 18 18 18 17 17 16 15 13 12 11 9 8 9 9 5 8 9 11 6 10 8 4 9 10 11 11 12 13 17 16 14 15 13 12 13 14 11 11 8 11 8 7 7 7 9 7 4 2 14 3 5 5 5 6 10 7 7 9 10 8 9 10 11 9 9 10 12 16 18 22 24 25 24 24
25 24 26 27 26 25 24 23 22 22 21 20 19 18 19 18 18 17 16 16 15 13 11 10 10 9 8 7 5 8 7 8 7 7 11 6 4 10 13 14 13 16 18 15 13 15 13 13 13 13 12 9 11 9 10 9 10 8 8 6 11 17 7 1 5 5 4 1 1 9 9 11 8 7 6 13 4 3 6 8 13 16 20 22 23 24 23 23
25 26 26 26 25 25 24 26 24 23 21 20 19 19 19 19 18 17 16 15 14 12 12 10 9 9 10 8 8 9 7 2 5 8 9 4 5 12 14 15 15 16 18 17 14 14 15 13 13 12 11 11 11 10 8 12 8 10 9 9 5 5 4 4 1 6 8 3 6 6 7 7 7 8 10 9 7 5 5 8 14 16 20 21 21 22 23 24
25 25 26 27 27 27 26 24 24 22 21 20 19 19 18 18 18 17 15 14 13 12 10 9 9 9 7 2 10 9 9 3 5 9 8 3 5 10 16 15 14 15 17 16 16 14 16 14 15 12 11 11 13 11 11 10 12 11 11 4 6 8 7 5 7 3 2 3 3 3 8 7 8 9 9 7 7 5 15 12 15 17 19 21 23 22 22 23
26 25 26 27 27 26 25 25 24 22 22 20 20 19 19 19 18 17 16 14 13 12 9 8 8 8 5 8 7 7 10 2 7 9 11 7 5 11 14 13 16 16 17 18 16 17 16 16 15 12 12 10 7 11 9 13 12 12 12 10 7 3 6 5 6 6 2 2 3 2 6 5 8 6 11 3 7 10 9 12 16 17 19 20 21 21 21 21
26 25 25 25 25 24 24 24 24 22 21 20 20 20 20 19 17 16 16 15 12 10 8 7 8 6 8 7 9 10 3 8 6 7 5 5 7 11 16 13 17 16 16 16 16 15 14 14 15 13 10 12 12 12 11 10 9 13 13 11 9 8 6 7 7 6 5 4 1 4 8 7 10 10 8 11 8 5 9 15 15 17 20 20 20 20 21 21
26 26 26 27 26 26 25 24 23 22 21 20 20 20 20 19 17 16 14 13 11 8 8 8 6 7 7 8 9 9 7 7 2 5 4 5 8 11 14 11 17 16 15 16 15 16 16 11 15 13 15 12 9 13 10 12 7 3 11 13 13 10 7 6 8 7 7 9 5 8 8 10 12 6 7 7 5 5 13 14 15 17 19 19 18 19 19 21
26 26 27 26 27 27 26 25 24 22 20 19 19 19 19 19 17 14 13 11 7 6 6 7 6 7 8 10 9 4 1 7 4 2 4 0 7 10 11 11 15 14 14 14 15 16 14 13 12 8 9 9 7 12 12 9 13 9 7 7 10 12 12 10 8 9 9 9 8 7 6 8 6 8 3 10 13 13 13 13 15 15 17 17 19 19 19 18
26 27 27 26 27 27 27 27 25 23 20 19 18 17 18 18 16 13 11 9 6 5 6 7 9 6 9 9 8 6 5 4 2 1 2 4 6 6 9 9 14 14 13 13 14 14 14 14 10 11 7 5 12 8 11 13 11 13 12 11 12 13 13 14 14 12 10 8 8 10 3 7 4 8 7 10 12 11 11 15 15 15 16 17 18 18 17 17
27 27 28 27 28 28 27 27 25 23 21 18 16 16 17 16 14 12 8 5 4 5 7 6 7 7 8 8 3 8 6 1 2 2 4 4 3 5 7 8 11 13 12 12 12 13 13 13 12 12 15 5 6 6 8 6 12 12 12 10 12 12 13 14 15 15 14 9 10 10 9 6 10 11 13 11 10 11 14 15 13 14 14 15 17 16 17 17
27 28 28 27 27 28 28 27 26 25 22 17 16 15 15 14 11 11 6 7 4 5 6 7 8 8 7 5 7 5 3 1 2 7 3 1 7 7 7 8 9 11 11 12 9 9 13 12 12 13 12 13 8 5 7 9 8 11 13 10 11 11 11 13 14 16 16 10 11 12 3 6 7 11 8 8 11 11 10 11 15 14 15 15 16 16 17 19
25 26 27 27 27 28 28 27 26 25 23 19 15 14 14 13 10 9 5 7 3 5 7 6 8 7 8 4 4 7 1 5 6 4 1 5 6 5 8 8 10 12 11 10 8 8 9 12 12 12 11 11 17 11 8 9 10 11 10 13 12 13 10 13 17 17 16 14 16 13 11 6 9 13 13 9 11 12 6 14 15 15 14 16 16 17 17 18
24 24 25 27 28 28 27 25 25 24 22 20 17 17 14 10 10 7 6 9 3 6 7 7 8 8 10 3 6 7 8 6 2 4 3 6 4 8 7 8 8 11 10 7 6 5 8 10 12 10 10 11 14 10 9 9 11 11 13 11 14 13 12 10 14 15 18 12 15 16 6 4 8 7 16 12 12 12 15 14 12 15 17 16 16 15 16 17
24 24 25 26 28 28 26 25 25 24 25 19 16 15 11 10 6 8 9 7 6 7 5 5 5 2 6 6 4 6 7 5 2 6 7 7 6 3 7 8 9 12 10 8 9 6 8 9 8 10 12 11 11 10 10 11 12 12 13 13 13 15 13 12 9 13 16 15 14 16 11 12 5 8 16 16 16 17 15 15 16 14 14 16 15 16 17 17
25 25 24 25 27 26 25 24 24 24 25 24 17 17 10 4 7 9 9 8 7 7 5 7 6 7 7 3 2 8 6 5 3 2 5 5 8 5 7 8 7 12 10 10 10 10 10 10 10 11 10 12 12 13 13 14 14 13 13 14 14 15 16 14 10 13 16 18 14 11 15 7 6 5 14 21 16 15 16 12 11 14 16 15 15 16 17 17
28 26 25 23 23 24 23 23 24 25 24 23 24 8 8 6 7 10 8 5 6 6 6 5 5 4 7 7 3 5 5 4 2 8 9 8 8 8 8 5 8 13 12 11 11 14 11 10 10 12 14 14 15 16 16 16 13 14 14 13 14 13 13 15 13 12 16 16 15 17 12 12 13 15 13 12 16 16 14 13 10 19 16 15 15 15 15 16
28 26 25 24 22 23 24 23 24 25 23 18 13 2 6 4 6 4 6 10 6 7 6 6 3 4 5 4 8 7 7 8 9 4 3 2 7 10 11 8 10 12 12 12 13 15 10 13 15 16 15 17 19 18 17 18 15 11 14 14 15 16 14 13 13 12 13 14 17 15 15 14 14 15 17 19 16 13 12 13 12 16 13 14 13 14 14 15
25 25 25 25 24 22 24 25 25 24 24 15 16 9 6 10 9 3 12 8 4 3 5 2 5 5 6 6 6 8 6 6 3 3 2 5 8 8 10 10 11 12 13 13 11 12 13 14 16 17 19 17 17 18 18 17 17 12 12 14 14 17 15 12 13 14 12 12 13 16 16 11 5 16 16 15 17 15 15 15 15 14 16 16 16 15 16 15
26 25 25 25 25 23 23 25 25 23 26 11 11 7 5 8 6 6 7 4 7 3 4 1 3 4 3 2 2 6 6 6 7 4 3 10 8 11 11 11 12 12 12 14 12 12 15 16 16 18 17 16 14 16 18 17 17 14 12 9 11 12 14 14 15 16 14 12 11 14 16 14 21 19 11 13 13 14 18 19 19 16 14 11 13 15 14 13
25 25 24 25 26 25 23 23 24 21 10 9 4 6 7 7 6 5 6 9 11 5 7 4 5 2 4 1 2 5 10 7 3 5 6 8 6 13 8 10 11 12 13 16 14 12 14 15 18 17 16 17 16 16 16 17 15 13 12 12 10 9 11 13 13 14 18 13 11 14 15 12 15 15 14 12 11 12 13 17 16 22 19 18 17 13 13 18
25 25 23 25 27 27 23 23 24 14 8 6 2 7 4 5 6 6 8 7 5 11 7 4 4 3 5 7 5 8 8 5 8 6 3 8 9 4 11 9 12 12 13 16 18 14 14 9 16 18 17 17 18 16 15 13 14 16 15 13 12 12 12 12 10 13 10 9 7 9 13 12 12 13 14 14 14 16 17 21 22 14 16 15 15 14 15 15
25 24 24 26 26 27 24 22 10 4 5 7 4 5 6 4 6 6 7 7 8 5 6 5 5 3 5 3 6 10 2 5 3 1 3 6 6 2 9 7 9 12 14 15 17 17 16 14 12 19 19 18 18 16 16 14 13 14 19 17 13 14 13 11 16 11 14 15 16 16 11 13 14 17 16 16 17 19 14 17 17 15 9 13 13 14 13 17
25 24 25 22 24 25 25 7 1 6 9 3 7 8 6 6 3 5 7 6 5 9 7 7 3 3 4 4 4 3 3 5 3 3 4 4 7 10 4 10 8 11 14 15 13 11 13 13 14 12 19 19 19 17 16 16 12 12 13 18 19 16 13 13 14 8 12 11 11 17 16 11 13 16 16 16 20 25 22 23 18 13 18 16 16 13 15 15
24 26 23 22 22 20 11 1 10 10 7 5 7 8 7 6 1 7 6 6 7 6 4 8 5 5 5 5 8 2 9 6 1 5 6 6 8 5 10 7 9 10 10 8 8 12 12 16 16 12 15 18 16 16 15 15 13 12 7 11 17 18 17 15 13 13 11 11 15 18 15 13 11 14 17 17 19 20 21 21 18 18 17 19 15 16 17 19
25 25 23 23 23 12 8 10 10 5 6 7 7 8 7 4 3 5 6 6 3 4 3 6 4 2 7 4 8 8 8 5 10 8 6 3 7 8 8 11 10 9 13 10 13 7 14 16 18 16 16 15 16 15 13 16 15 10 10 7 6 12 17 18 13 11 11 12 12 13 16 13 13 12 15 20 21 20 20 20 20 19 17 15 15 11 15 17
23 23 24 24 24 24 9 8 7 6 6 6 7 8 5 1 7 5 5 9 7 2 2 3 2 5 5 5 5 4 4 2 9 6 2 6 7 8 8 8 11 14 12 14 13 9 9 14 17 14 12 14 12 12 15 17 15 14 14 7 8 7 11 15 14 13 12 13 16 14 16 16 15 10 12 15 19 20 19 20 20 19 20 15 17 20 19 17
25 23 23 22 19 10 8 9 7 4 6 6 8 8 5 6 6 6 6 5 4 5 2 4 5 3 5 7 6 2 6 2 5 6 5 5 9 8 10 8 9 9 11 11 15 15 12 11 14 12 13 12 13 16 17 18 15 10 15 11 7 9 9 9 12 12 12 17 17 17 19 18 12 12 14 14 14 15 17 17 17 19 18 18 17 16 14 14
23 23 21 19 9 7 9 7 5 4 6 6 8 9 6 5 7 5 8 6 4 8 4 2 4 6 3 5 3 4 5 2 2 6 6 9 10 8 5 9 6 9 9 11 12 14 19 15 12 11 13 11 14 13 14 13 14 14 10 12 8 10 10 10 10 12 14 16 15 18 18 19 17 11 12 15 15 15 16 18 20 20 21 22 19 18 18 18
23 23 22 12 9 8 8 7 11 8 7 9 9 7 6 7 7 8 2 4 7 7 2 6 4 3 3 1 3 4 5 4 3 3 6 5 2 5 4 8 2 7 10 10 11 12 16 17 11 10 12 15 15 14 12 14 13 13 12 11 12 9 9 11 11 15 15 15 10 16 18 17 21 14 10 14 16 17 17 13 15 18 21 21 21 19 17 18
25 23 23 14 11 7 9 6 6 7 8 9 8 7 7 6 7 3 4 3 4 7 7 4 6 4 6 10 2 5 3 7 6 3 3 5 9 5 3 6 6 8 9 4 10 12 12 16 19 14 11 13 14 15 12 13 14 14 13 12 13 12 12 11 12 10 11 14 15 13 17 18 12 16 19 17 13 15 16 16 16 20 19 20 17 20 20 18
27 23 10 5 7 7 6 6 6 6 10 7 8 7 7 7 4 4 3 7 6 3 2 4 5 3 3 6 7 6 4 7 4 6 7 3 5 4 7 7 5 7 10 8 9 8 12 14 18 19 14 14 18 16 14 10 13 14 12 14 12 12 10 11 10 14 14 9 14 20 14 13 18 11 13 20 18 15 15 17 16 16 18 19 22 19 16 16
30 21 10 9 10 10 9 6 5 7 6 7 7 7 7 6 1 4 4 6 5 1 1 1 7 8 6 6 5 1 6 2 5 7 6 6 6 6 1 5 7 7 6 9 7 9 15 13 11 26 16 16 17 18 17 15 12 13 14 13 14 15 10 11 8 11 11 12 12 15 16 9 10 8 15 13 19 19 14 9 12 17 16 18 18 15 17 19
22 3 4 6 5 5 6 3 5 5 7 7 8 7 4 7 7 6 6 7 1 5 4 6 5 8 4 4 6 3 8 7 6 5 5 6 5 2 7 5 6 10 8 8 9 8 9 13 7 4 23 20 19 16 18 16 13 12 14 17 15 11 14 12 12 12 13 12 13 9 11 15 10 10 11 13 15 21 20 13 11 11 12 15 17 18 20 18
7 6 7 4 5 6 4 5 4 6 6 7 7 5 8 6 7 5 4 6 8 7 7 9 6 6 2 3 3 5 4 9 2 3 3 5 4 3 3 5 4 6 8 9 9 8 10 11 9 11 12 19 19 19 18 20 17 12 15 13 12 14 14 12 11 9 11 12 10 12 15 13 15 13 13 15 14 13 19 20 16 13 12 13 14 18 17 17
9 7 7 4 7 5 2 2 5 6 8 7 2 8 4 3 6 6 4 4 5 5 7 7 4 2 6 1 5 6 4 8 5 2 7 1 2 2 2 3 7 6 8 9 8 5 9 10 9 8 11 8 11 15 17 20 22 21 13 9 14 14 17 13 10 14 12 13 9 10 13 13 13 10 11 17 18 17 14 16 19 19 17 16 16 16 17 20
9 6 4 8 6 4 3 2 4 7 7 9 2 7 5 3 4 5 4 6 2 7 8 6 8 3 4 6 7 5 2 5 9 5 4 5 5 6 6 4 5 7 7 9 8 8 7 10 12 11 11 10 12 14 17 16 20 23 22 17 12 13 14 14 13 9 9 10 10 12 13 11 10 10 13 14 17 18 19 16 17 20 21 20 18 17 17 16
7 8 4 8 7 5 3 7 6 6 9 5 1 7 3 6 4 4 2 6 3 5 5 6 4 7 4 3 6 6 1 3 5 6 4 2 4 9 2 6 6 8 8 9 10 8 9 6 13 8 12 10 14 11 13 14 15 17 17 16 12 12 11 12 12 14 11 10 9 8 11 11 10 10 13 13 14 18 19 19 17 16 17 19 19 18 17 18
6 7 6 9 6 6 7 10 12 4 4 4 6 6 4 5 4 5 2 2 5 3 8 5 6 5 7 6 7 4 7 4 6 6 5 5 7 5 6 7 5 8 9 9 9 9 9 9 12 11 12 13 14 13 17 18 18 16 15 15 15 13 15 17 17 14 15 12 7 8 9 4 11 13 13 11 9 7 12 18 18 18 19 17 15 17 17 17
9 3 8 9 6 9 9 5 5 3 1 3 5 3 4 4 3 3 1 1 4 2 6 6 4 4 6 4 6 7 5 8 8 8 6 10 10 7 11 6 7 8 7 7 8 7 5 7 10 11 11 11 13 15 13 16 19 20 17 18 20 16 14 14 13 15 13 13 12 10 8 9 7 4 5 13 12 8 7 9 14 16 18 18 16 18 18 14
4 6 5 8 6 11 10 6 1 6 3 5 4 4 2 3 6 4 5 4 5 4 3 8 4 5 1 3 6 8 8 8 7 8 9 7 6 11 9 10 9 9 7 7 11 5 7 6 8 11 13 16 18 15 16 17 18 19 18 16 17 22 18 15 14 13 13 13 13 11 11 6 10 5 5 7 5 7 9 10 9 8 9 14 17 16 15 15
5 5 5 6 9 8 10 1 4 6 5 3 4 6 6 7 6 1 2 2 5 3 6 6 3 4 6 6 7 8 5 6 2 8 8 6 5 9 8 6 8 8 7 7 7 10 7 7 9 9 8 10 13 13 14 14 11 12 15 17 18 19 25 21 16 13 15 17 17 13 14 11 11 9 5 5 6 5 4 3 4 7 8 10 11 13 13 15
5 5 2 6 5 9 8 7 3 2 5 5 0 4 7 8 3 5 7 6 5 4 4 1 4 7 8 5 6 7 6 9 6 4 8 6 9 7 7 4 2 7 7 8 10 9 8 8 7 11 13 12 12 15 13 12 13 13 16 19 23 24 21 21 20 13 10 8 16 14 13 11 9 13 14 13 8 7 4 4 9 8 4 6 8 11 5 5
6 4 4 7 4 3 8 6 10 1 9 7 5 4 3 3 13 5 8 1 2 8 3 7 3 5 5 5 6 8 6 6 6 4 3 4 5 5 4 7 8 8 8 7 9 9 8 9 10 11 12 13 8 12 13 12 11 9 13 22 25 23 22 20 15 17 14 11 13 13 12 8 16 12 7 8 8 13 12 7 5 5 10 8 6 4 4 3
3 5 6 5 2 8 9 4 6 6 6 3 2 8 3 3 5 4 3 4 4 7 8 3 7 6 4 4 5 7 6 7 5 6 6 8 6 7 4 9 8 9 2 5 9 8 8 10 13 16 19 19 20 18 16 16 15 15 16 15 13 17 24 22 15 14 11 13 16 12 13 14 11 7 12 12 11 12 10 8 8 11 7 7 7 4 6 4
2 3 5 4 5 5 3 8 8 4 10 11 4 5 2 6 6 5 3 3 7 2 7 6 2 1 4 5 5 7 4 6 7 9 7 6 7 8 9 8 10 7 8 9 8 8 9 10 12 14 17 19 23 22 20 17 15 18 19 18 18 17 21 21 14 21 20 15 13 14 17 16 14 11 11 8 9 8 11 8 7 9 7 9 3 1 5 8
5 2 4 6 1 5 5 1 7 8 5 6 5 6 4 6 3 3 5 5 4 2 2 6 3 3 5 4 5 6 5 7 5 1 4 7 8 8 9 8 11 9 10 9 8 6 8 12 13 15 17 17 20 21 18 19 19 19 18 18 17 16 17 17 22 19 20 19 17 14 8 11 12 12 11 13 6 5 8 5 1 1 7 8 4 2 5 6
6 4 5 7 5 2 3 1 2 2 5 2 3 7 4 5 4 4 2 3 4 2 1 6 5 5 5 5 5 6 5 7 9 10 6 7 8 8 9 8 7 5 5 7 8 5 6 7 10 11 13 15 16 19 20 20 20 20 19 18 17 16 15 14 16 20 24 26 25 21 15 13 13 15 4 11 8 7 6 9 9 6 2 1 6 6 6 9
5 5 6 6 2 5 3 5 3 4 3 5 3 4 3 3 4 4 5 3 5 6 6 6 6 8 6 6 6 8 7 8 8 10 10 10 10 7 7 4 4 7 6 7 7 6 8 10 10 11 13 13 13 16 19 20 21 22 21 20 18 16 16 16 15 16 17 19 23 24 20 14 12 16 10 11 8 10 10 10 7 3 7 6 7 8 8 7
2 1 7 7 2 2 4 1 2 6 3 5 5 3 3 4 4 5 5 2 5 5 5 5 5 7 6 6 7 6 7 9 11 12 11 11 12 12 12 12 11 10 8 10 8 9 9 8 8 10 13 13 14 15 16 18 18 21 22 20 19 18 16 16 18 18 18 19 21 20 18 12 16 16 8 8 8 12 11 7 8 8 8 8 7 10 10 8
Wind_Direction
343 342 342 341 341 338 339 338 337 337 336 334 330 325 326 323 318 317 316 315 315 314 312 302 300 294 284 279 285 283 287 268 271 227 229 247 358 97 115 100 201 205 218 216 197 179 187 194 197 195 205 214 219 238 226 201 238 241 232 259 280 111 280 166 230 115 138 145 147 175 168 144 146 150 120 153 150 122 131 120 120 122 123 133 132 139 142 149
344 342 341 340 339 338 338 338 337 338 333 332 329 325 322 321 319 314 313 314 315 314 308 307 294 287 283 274 276 281 272 266 262 255 245 102 79 211 164 199 172 209 201 214 193 185 185 191 194 188 208 218 209 238 209 204 205 234 256 219 242 160 222 235 37 95 101 214 161 167 171 162 130 159 150 161 149 142 136 126 127 114 113 122 136 137 144 152
341 340 339 338 339 341 339 338 338 335 334 331 328 324 321 318 315 313 312 313 314 310 307 299 296 283 278 278 272 269 270 269 250 253 6 97 187 187 203 209 213 211 203 200 196 190 194 189 188 191 207 227 196 231 188 221 193 226 256 288 335 235 265 55 31 67 143 185 208 153 171 131 135 157 169 174 149 153 149 137 135 125 125 135 140 145 148 156
340 339 338 340 342 341 341 339 336 335 333 331 327 323 321 316 313 312 311 311 310 310 306 297 285 281 275 273 278 268 256 281 252 99 56 176 224 190 197 205 209 215 215 220 194 201 202 194 197 199 209 233 193 237 191 216 211 188 235 239 228 135 272 70 52 44 66 154 171 154 171 117 180 155 181 144 149 168 146 144 144 139 140 139 149 149 152 160
342 341 342 343 342 341 338 336 335 335 333 329 325 324 320 315 313 308 309 308 309 305 301 294 283 273 268 269 277 257 269 265 98 53 44 21 254 190 189 198 205 206 211 219 201 207 206 202 197 206 232 225 236 210 234 232 224 282 257 264 152 247 249 227 61 15 18 124 78 155 170 165 181 152 159 58 52 121 50 181 144 143 144 146 152 151 157 161
341 343 343 342 342 341 338 337 336 335 331 326 325 322 319 314 312 308 307 305 304 301 291 284 275 266 256 255 250 246 257 354 60 38 37 337 274 189 187 193 201 209 207 223 205 202 204 202 200 208 220 238 229 228 213 241 217 249 239 249 221 265 274 295 303 57 305 111 153 175 176 134 170 154 108 133 132 169 120 228 151 147 146 152 153 156 161 162
342 342 344 343 341 340 338 335 334 331 328 325 323 321 315 312 310 309 307 305 298 293 285 273 266 258 268 273 241 249 249 313 84 58 93 12 319 197 181 188 192 205 207 216 205 199 204 201 202 208 222 228 245 239 242 228 226 245 270 284 219 208 259 145 270 125 229 231 117 242 133 199 158 161 95 140 106 281 182 181 136 141 149 155 154 165 163 169
342 341 343 343 342 340 337 334 331 329 327 325 322 316 317 313 311 309 306 302 294 286 283 278 258 252 239 245 247 226 229 102 73 52 120 92 116 152 167 182 185 193 205 213 199 204 197 207 200 210 226 228 222 239 237 245 229 233 246 262 294 265 253 222 216 226 239 273 239 188 181 189 166 106 131 140 153 209 123 130 139 145 151 158 157 165 162 168
342 342 342 341 340 338 335 332 328 327 325 322 320 319 314 314 312 309 305 297 293 289 281 254 245 251 229 281 266 283 101 53 25 22 77 100 95 148 165 168 188 192 204 212 208 207 203 208 211 215 221 225 244 246 231 244 235 233 249 262 255 244 237 238 230 248 253 277 186 167 201 163 113 111 157 166 193 154 131 136 146 152 155 159 162 170 161 171
342 342 342 340 338 336 334 331 328 326 324 320 320 317 316 314 315 310 302 297 296 287 258 236 234 226 232 251 271 263 78 322 18 50 39 88 132 150 181 173 183 197 205 209 207 210 208 203 218 207 254 268 261 242 243 220 275 52 241 239 256 260 248 222 248 229 228 242 161 220 165 185 135 178 137 157 174 140 152 146 151 157 160 159 163 166 166 171
343 342 340 337 338 336 333 331 328 325 322 321 317 315 313 315 314 308 302 298 295 259 238 227 218 227 250 253 281 311 11 279 355 353 76 86 150 174 196 183 189 204 213 206 213 212 209 228 208 235 239 259 266 255 241 239 245 249 269 280 256 256 256 253 222 235 225 216 220 229 171 54 196 172 178 172 169 181 152 152 155 160 163 161 163 168 166 174
342 341 340 338 337 335 333 330 327 324 323 320 316 312 316 315 310 308 301 303 268 232 227 228 207 242 267 275 258 11 346 359 281 326 196 167 211 196 206 196 195 214 212 210 215 210 222 227 224 229 233 161 250 276 236 242 249 255 262 258 252 243 238 227 234 223 221 230 197 222 231 154 203 169 209 179 188 165 171 159 164 163 164 162 167 163 170 175
342 341 340 338 337 334 332 329 326 323 320 317 315 314 314 312 307 299 308 264 194 227 219 217 225 249 271 253 87 48 348 331 126 257 259 186 220 203 211 216 209 217 220 230 209 218 224 230 236 233 240 264 255 235 24 291 235 249 249 258 266 254 243 222 218 223 215 221 199 192 215 187 218 217 156 164 170 170 187 169 176 163 166 165 164 166 169 176
341 340 340 337 335 334 332 328 326 322 318 318 318 312 313 305 300 302 279 296 146 246 218 222 246 252 257 295 100 85 276 223 185 225 217 138 230 179 215 208 217 219 229 241 237 217 224 231 240 250 253 244 237 357 268 231 241 232 236 244 253 249 241 216 209 204 219 186 220 207 252 231 192 216 146 166 168 197 179 194 176 165 167 167 168 166 175 175
340 339 339 337 335 334 331 327 325 320 317 321 318 314 307 296 294 294 287 213 199 211 226 225 230 255 231 157 108 141 193 276 217 184 274 238 217 168 210 195 206 213 218 231 243 234 228 225 235 240 238 236 261 284 263 246 218 222 231 226 227 241 243 232 189 198 213 177 205 199 211 192 195 188 157 180 175 187 197 215 173 172 172 170 168 169 176 176
339 338 339 337 335 334 329 327 323 318 316 319 318 313 299 277 278 263 244 290 176 219 218 232 210 237 294 232 89 116 205 254 349 12 269 236 201 244 165 190 196 203 209 210 247 232 224 227 222 228 240 224 239 233 255 224 225 216 229 227 223 222 238 237 176 196 205 195 189 214 212 194 190 218 148 170 176 214 192 198 189 179 177 170 171 170 177 174
337 336 337 335 333 332 329 325 323 318 318 317 315 301 278 272 251 244 251 244 201 214 236 281 323 249 283 64 191 216 3 349 353 239 184 222 221 248 173 175 193 192 189 204 218 227 200 222 205 239 239 240 212 226 238 230 217 217 208 233 232 225 216 236 167 207 197 215 190 198 224 168 160 186 145 182 191 178 206 193 199 191 182 174 176 174 176 177
336 334 333 332 331 329 328 325 322 321 317 319 310 295 283 234 264 267 238 230 226 224 243 264 290 263 211 271 354 353 338 347 354 319 220 184 221 204 199 192 178 187 183 200 203 210 185 208 203 222 210 224 220 209 221 220 215 209 204 217 230 236 230 227 198 188 212 200 220 190 225 189 158 195 188 180 171 203 209 181 205 210 182 176 181 177 176 179
335 333 330 330 328 328 326 326 324 322 319 316 294 279 228 278 255 242 260 189 217 200 211 157 237 281 27 19 16 325 352 41 261 215 160 214 193 212 192 209 181 180 189 201 177 210 180 214 202 222 216 204 215 213 214 227 226 227 214 219 229 229 219 231 203 192 202 206 215 197 211 206 165 201 187 169 189 205 202 189 195 213 183 176 185 182 179 182
333 332 328 327 330 329 330 327 325 322 324 325 313 210 200 228 199 186 214 230 251 348 342 350 321 293 230 25 351 345 268 237 224 38 155 196 192 191 193 191 182 200 196 203 171 205 177 209 203 209 213 209 213 220 227 236 251 250 236 227 225 231 239 224 223 185 196 215 213 218 215 197 186 181 181 179 186 198 202 196 220 207 187 173 189 182 186 185
331 330 329 326 331 332 331 328 324 320 321 309 293 317 19 4 332 33 343 308 8 329 321 17 337 324 359 321 354 333 343 129 2 105 62 162 214 188 179 197 185 204 206 208 198 183 205 216 216 212 217 220 214 219 232 240 246 259 269 243 221 224 236 218 220 177 201 223 216 219 223 201 206 207 188 178 178 192 209 205 227 204 189 185 185 187 184 180
332 330 328 328 328 334 329 327 318 317 311 279 281 15 32 29 353 330 309 282 167 177 243 277 305 280 99 342 348 323 271 285 136 94 141 228 168 226 146 221 193 211 197 210 200 186 209 220 219 216 217 225 225 218 226 233 239 240 243 249 256 228 230 233 222 190 192 208 234 220 225 215 202 210 188 179 198 197 198 209 188 211 200 160 181 196 174 185
331 329 329 330 329 328 331 318 316 309 303 301 28 10 23 342 336 335 283 286 278 208 227 227 214 346 13 176 344 289 268 267 41 124 112 244 199 239 172 214 209 221 207 207 209 196 213 221 223 219 217 221 225 227 220 224 238 240 227 239 235 247 224 215 228 218 196 205 212 209 230 223 226 202 201 181 202 199 217 234 206 193 186 179 185 185 179 189
330 330 328 330 327 326 325 323 306 292 244 313 31 27 0 323 322 326 280 261 294 169 234 126 294 317 30 322 52 299 302 73 264 99 140 249 253 198 244 233 229 217 225 206 222 220 219 219 209 223 219 217 224 219 221 219 223 227 238 234 239 236 232 249 203 218 238 184 245 241 220 229 229 215 195 175 195 218 210 210 213 197 176 186 174 189 183 193
328 331 330 330 326 321 325 320 295 253 1 241 92 25 357 319 314 316 285 255 230 198 130 173 265 157 9 263 220 274 73 243 287 340 352 264 300 235 235 244 250 224 227 215 221 234 231 224 207 209 219 215 222 219 217 223 227 221 226 239 242 240 254 233 252 251 206 214 209 227 245 230 221 224 215 184 181 205 213 231 216 174 200 164 182 184 197 193
329 328 331 326 322 321 312 293 192 358 291 353 2 356 339 328 307 288 269 261 229 133 174 172 242 117 309 165 310 301 252 235 99 17 309 360 325 281 313 241 226 240 216 230 222 233 238 219 236 218 209 214 215 226 215 220 232 229 216 217 233 251 255 258 245 215 249 231 206 211 235 228 209 220 219 210 198 195 187 210 206 193 178 184 183 181 188 195
328 327 327 325 320 331 315 13 350 281 268 92 354 350 323 313 22 243 241 218 227 119 193 80 234 84 277 37 289 297 242 104 240 154 224 123 269 146 258 251 200 251 272 238 226 222 221 236 221 200 223 215 213 218 217 210 228 230 236 208 218 229 242 248 248 245 244 240 254 209 213 249 232 212 215 217 216 208 197 188 205 201 205 172 186 185 189 198
325 327 325 323 317 315 282 305 298 300 18 347 340 323 331 314 260 237 248 265 128 151 136 140 21 89 263 345 257 301 349 315 246 138 271 93 248 192 233 266 268 227 219 255 238 208 210 219 233 204 214 220 218 216 208 207 221 238 224 237 240 228 228 238 248 248 246 254 241 240 209 224 238 236 210 208 216 211 209 205 193 196 194 176 177 186 200 195
323 323 323 320 319 297 263 254 291 309 2 335 317 323 316 276 239 250 273 270 94 180 2 126 359 224 290 216 230 343 301 14 296 55 270 232 235 306 233 224 255 276 273 232 245 239 207 228 220 228 210 222 217 209 219 218 223 224 251 221 238 237 235 231 237 241 249 242 245 232 235 234 219 206 235 215 218 211 211 206 200 186 194 186 185 192 199 195
323 320 319 319 313 254 220 228 256 306 311 327 310 304 303 249 228 224 207 240 115 133 281 55 252 25 294 279 175 323 255 88 304 307 244 286 146 216 251 302 277 270 261 255 249 257 262 180 235 223 210 223 220 220 219 222 226 226 230 235 208 246 244 231 233 240 240 245 240 238 242 244 248 221 226 229 209 216 209 207 203 187 173 183 192 193 194 202
319 316 312 317 290 351 319 251 110 332 322 305 301 287 261 233 246 265 246 62 189 87 206 72 50 239 289 307 183 80 228 255 328 312 214 194 199 236 243 219 218 254 254 259 248 234 246 255 201 230 221 213 239 228 206 223 214 217 224 226 227 219 227 235 227 219 237 241 236 235 238 240 237 212 219 224 223 207 217 212 198 184 191 185 188 192 197 202
315 312 308 306 283 316 285 328 347 330 308 300 294 273 235 232 216 252 11 120 256 92 300 80 101 352 288 229 269 351 331 213 30 302 311 317 280 242 131 312 170 241 223 221 242 214 230 230 235 208 223 222 208 239 206 200 209 214 215 217 216 212 203 216 211 217 221 236 225 225 227 237 238 249 233 217 219 210 209 214 198 198 192 178 185 190 195 196
314 311 305 279 250 240 255 308 315 300 292 278 282 254 236 257 245 242 113 263 91 352 97 289 20 310 349 254 131 340 237 299 10 289 300 229 272 156 360 300 349 297 302 272 249 221 215 220 225 225 201 206 224 212 210 194 200 208 210 207 208 214 206 217 212 228 235 227 232 233 216 239 244 237 237 255 219 223 211 205 215 207 193 178 173 184 199 189
311 312 298 231 230 253 291 275 276 293 277 271 257 247 237 249 245 49 359 47 68 112 104 2 297 243 261 334 37 335 257 123 309 334 290 287 235 211 134 93 356 294 269 280 268 247 224 198 211 215 214 181 211 226 219 219 189 210 214 216 217 222 217 210 215 214 224 238 207 219 238 224 221 222 218 223 251 247 203 195 212 222 194 186 174 182 195 190
310 301 263 253 245 240 241 276 298 271 267 256 245 249 244 241 273 54 92 73 67 335 179 47 268 275 172 182 82 108 343 320 87 326 262 254 236 255 219 60 30 338 299 283 249 269 262 255 199 198 215 188 207 211 234 229 226 200 208 225 225 222 237 248 219 229 226 222 229 198 222 222 230 232 226 221 215 232 255 214 195 216 204 175 162 182 201 205
300 249 212 247 274 343 299 280 253 252 253 249 254 234 241 16 34 5 46 323 24 318 342 254 243 246 234 186 137 113 125 313 1 303 268 223 18 21 47 2 5 12 339 306 338 294 258 234 306 275 201 205 201 197 213 235 229 188 202 213 221 221 240 248 263 256 248 241 234 215 206 219 240 236 225 224 219 212 213 207 219 228 189 167 177 184 194 211
319 309 231 240 318 332 323 261 250 246 243 260 258 260 40 84 12 12 24 347 10 325 273 282 145 297 6 325 300 96 7 301 195 332 258 78 233 129 44 58 15 343 358 330 303 274 304 293 330 318 231 205 207 198 216 218 246 239 207 211 210 230 245 247 250 224 237 243 226 218 219 206 203 222 200 204 224 220 207 205 201 202 194 187 185 186 191 196
313 301 300 320 350 317 296 321 254 233 249 254 259 32 334 34 58 26 10 287 234 202 294 266 93 264 251 292 258 46 44 300 69 317 305 312 33 35 349 311 80 3 338 329 301 334 342 290 254 226 283 234 228 235 211 224 220 246 250 177 211 192 216 225 249 235 223 222 238 219 232 235 200 211 187 198 201 210 212 209 209 200 196 201 198 197 197 199
277 268 235 29 355 344 304 325 260 238 239 242 139 207 90 52 25 22 35 322 341 311 271 43 322 99 350 292 359 313 28 297 12 301 286 126 251 60 27 355 315 358 335 323 282 286 280 282 281 273 233 249 235 220 229 202 207 229 245 261 222 231 217 216 215 255 254 244 215 230 222 230 209 204 202 210 199 205 211 209 211 214 210 209 213 203 198 200
258 255 88 4 28 302 294 249 269 243 226 285 280 56 88 90 28 52 22 321 360 292 18 325 111 292 210 30 322 294 114 310 300 316 292 21 291 114 320 90 340 323 337 303 281 286 277 258 276 269 267 240 238 207 222 226 215 204 230 231 233 234 231 229 212 220 230 242 242 235 222 224 227 206 204 208 203 204 207 211 211 214 214 211 209 207 201 200
321 280 61 5 12 324 291 258 236 250 22 69 43 60 60 49 119 98 16 346 305 164 323 341 325 317 353 331 271 30 330 311 283 269 248 247 235 215 64 357 358 332 322 281 260 255 249 248 255 264 264 230 238 220 215 226 235 225 217 230 221 220 216 214 221 203 224 234 241 237 246 244 201 195 200 206 181 194 210 212 210 213 219 223 206 204 209 202
286 321 29 354 331 294 301 265 57 275 269 82 61 16 82 324 252 42 339 100 311 18 131 298 188 294 307 307 335 320 296 287 277 281 279 282 92 274 81 326 24 324 315 292 290 61 347 317 285 263 257 260 247 235 224 236 242 246 226 220 226 223 225 223 225 215 211 226 241 249 269 240 53 37 177 199 214 183 190 202 208 207 213 219 215 205 202 200
15 42 44 335 336 293 293 83 180 60 53 61 126 107 156 189 352 37 307 58 273 122 282 247 51 359 237 44 320 310 293 285 291 266 277 265 289 30 15 359 5 302 296 257 247 38 350 267 265 260 276 276 281 281 293 299 280 246 244 271 250 224 223 226 224 224 231 209 217 226 236 242 107 142 171 195 201 183 203 193 213 226 218 212 208 211 194 190
15 20 59 20 324 313 259 329 73 66 53 99 10 68 354 30 347 25 56 12 335 359 331 344 7 158 308 307 310 287 339 284 358 316 269 313 266 42 342 347 7 297 306 30 334 35 287 210 250 265 249 252 252 251 251 233 247 245 237 221 235 240 227 235 238 235 239 224 217 210 215 223 142 134 60 46 148 187 187 191 201 223 209 219 204 205 204 191
251 239 120 34 359 4 39 352 93 46 66 41 153 99 191 149 42 332 338 19 323 346 290 78 351 357 290 1 296 307 302 297 294 277 304 281 280 316 314 13 334 298 281 24 342 329 277 273 254 239 232 224 218 213 210 219 226 238 247 255 238 227 229 222 226 231 240 277 261 223 218 219 224 163 171 195 220 258 272 219 183 195 250 239 214 198 76 271
9 358 30 113 31 96 115 35 3 312 173 155 151 123 352 2 120 114 301 178 61 279 191 315 238 258 297 314 307 272 264 232 250 276 250 260 235 217 258 291 288 284 323 14 309 277 267 266 256 253 252 256 275 339 314 317 320 294 266 237 224 221 232 240 236 229 220 226 244 247 253 216 210 206 194 212 215 213 204 224 263 218 181 200 253 342 204 39
8 42 333 18 263 67 32 21 94 15 57 296 309 333 39 307 19 131 36 293 94 339 338 286 338 300 54 292 274 291 285 285 281 281 263 268 284 308 253 246 256 263 286 259 243 248 257 258 247 248 248 257 273 277 297 302 287 290 284 286 293 293 247 227 229 237 232 226 233 228 239 259 283 210 164 198 200 186 190 198 201 193 179 188 153 119 318 175
17 56 46 2 317 25 13 38 32 40 12 43 34 219 336 308 31 318 135 121 302 347 307 94 246 350 308 308 325 280 314 299 293 273 288 277 299 276 276 256 256 236 231 250 243 244 260 260 252 253 257 257 268 269 268 276 291 292 291 295 289 301 294 231 238 238 234 230 238 216 230 244 243 245 126 49 53 27 42 39 34 37 99 90 92 112 200 195
34 70 59 249 228 42 33 13 325 54 56 360 64 344 25 357 38 45 318 319 309 331 293 301 329 314 291 302 307 299 304 286 256 196 275 290 284 297 277 273 261 238 228 232 246 264 272 252 264 259 262 262 264 270 272 273 276 273 271 266 265 274 289 260 227 238 241 245 245 238 246 271 257 239 115 32 13 357 10 353 68 120 44 34 10 236 210 209
28 354 74 53 58 91 70 64 47 12 57 17 292 35 335 354 359 345 239 288 292 259 332 266 301 291 292 286 267 272 282 284 298 294 301 281 277 259 282 286 294 255 243 254 255 229 254 263 273 272 270 260 259 269 271 263 262 263 263 262 261 259 261 253 234 229 237 237 233 236 224 235 249 262 293 43 307 320 322 295 356 20 236 139 30 358 11 359
46 6 334 315 36 32 16 28 24 351 29 29 10 48 334 30 4 346 310 287 288 309 299 316 319 296 289 290 277 272 279 276 278 274 277 265 268 285 286 283 276 284 269 271 255 230 222 259 261 258 259 260 257 264 266 264 258 258 255 252 248 248 249 234 239 239 245 243 236 233 230 233 255 266 256 11 309 301 301 305 285 12 12 347 324 323 346 346
41 59 276 286 59 272 290 30 33 236 77 41 15 25 352 15 319 350 294 76 326 282 296 311 298 305 282 272 275 292 310 308 299 300 293 291 279 273 264 264 260 265 274 273 275 258 242 248 259 261 257 259 257 252 257 258 257 245 240 240 241 240 239 242 243 244 244 242 229 225 232 236 238 242 314 328 313 299 296 312 333 340 334 330 305 306 324 324